weather.gov     
National Weather Service

Terminal Aerodrome Forecast
NWS Homepage
This page is being discontinued on March 12, 2014.
The same data is available at this site. Please update your bookmarks.
Thank you, and we apologize for the inconvenience.
Please send an email to SR-SRH.Webmaster@noaa.gov with any concerns.


Current Version
Previous Version:    01  02  03  04  05  06  07  08  09  10  11  12  13  14  
[Printable]
750
FTUS41 KGYX 202320
TAFLEB
TAF
KLEB 202320Z 2100/2124 19011KT P6SM SCT015 BKN035
     FM210500 19006KT 2SM BR OVC015
     FM210700 20006KT 3/4SM BR BKN001
     FM211400 VRB03KT 5SM -RA BR BKN015=




750
FTUS41 KGYX 202320
TAFLEB
TAF
KLEB 202320Z 2100/2124 19011KT P6SM SCT015 BKN035
     FM210500 19006KT 2SM BR OVC015
     FM210700 20006KT 3/4SM BR BKN001
     FM211400 VRB03KT 5SM -RA BR BKN015=


U.S. Dept. of Commerce
NOAA National Weather Service
1325 East West Highway
Silver Spring, MD 20910
E-mail: w-nws.webmaster@noaa.gov
Page last modified: May 16, 2007
NATIONAL WEATHER SERVICE: for Safety, for Work, for Fun - FOR LIFE